Emporia, Virginia, United States (23847)
Lat: 36.69N, Lon: 77.54W
Wx Zone: VAZ087
Local Info
Past Weather Observations for Thursday, February 26, 2015

NOTE: This archive is for the closest National Weather Service station to Emporia. Information may differ from the station used for current weather conditions.

Click here for Long-term Archive

Time Weather Temperature Dewpoint Humidity Pressure Winds Precip Visibility
23:55
Obscured
Fog And Mist
27°F / -3°C 27°F / -3°C 100% 30.18 in
(1022 mb)
Calm - 3/4SM
23:35
Obscured
Fog And Mist
28°F / -2°C 28°F / -2°C 100% 30.18 in
(1022 mb)
Calm - 1 1/2SM
23:15
Obscured
Fog
27°F / -3°C 27°F / -3°C 100% 30.18 in
(1022 mb)
Calm - M1/4SM
22:55
Obscured
Fog
25°F / -4°C 25°F / -4°C 100% 30.15 in
(1021 mb)
Calm - 1/4SM
22:35
Obscured
Fog
27°F / -3°C 27°F / -3°C 100% 30.15 in
(1021 mb)
Calm - 1/4SM
22:15
Obscured
Fog And Mist
28°F / -2°C 28°F / -2°C 100% 30.15 in
(1021 mb)
Calm - 3/4SM
21:55
Clear
Fog And Mist
30°F / -1°C 30°F / -1°C 100% 30.15 in
(1021 mb)
Calm - 2SM
21:35
Clear
Fog And Mist
30°F / -1°C 30°F / -1°C 100% 30.15 in
(1021 mb)
Calm - 2 1/2SM
21:15
Obscured
Fog And Mist
30°F / -1°C 30°F / -1°C 100% 30.12 in
(1020 mb)
Calm - 1 3/4SM
20:55
Obscured
Fog And Mist
30°F / -1°C 30°F / -1°C 100% 30.12 in
(1020 mb)
Calm - 1 3/4SM
20:35
Clear
Fog And Mist
30°F / -1°C 30°F / -1°C 100% 30.12 in
(1020 mb)
Calm - 2SM
20:15
Partly Cloudy
Fog And Mist
32°F / 0°C 32°F / 0°C 100% 30.12 in
(1020 mb)
Calm - 2 1/2SM
19:55
Overcast
Fog And Mist
32°F / 0°C 32°F / 0°C 100% 30.09 in
(1019 mb)
Calm - 4SM
19:35
Overcast
32°F / 0°C 32°F / 0°C 100% 30.09 in
(1019 mb)
Calm - 7SM
19:15
Overcast
Fog And Mist
32°F / 0°C 32°F / 0°C 100% 30.09 in
(1019 mb)
Calm - 4SM
18:55
Overcast
32°F / 0°C 32°F / 0°C 100% 30.09 in
(1019 mb)
Calm - 7SM
18:35
Overcast
32°F / 0°C 32°F / 0°C 100% 30.09 in
(1019 mb)
Calm - 10SM
18:15
Overcast
32°F / 0°C 32°F / 0°C 100% 30.06 in
(1018 mb)
Calm - 10SM
17:55
Overcast
32°F / 0°C 32°F / 0°C 100% 30.06 in
(1018 mb)
NW 3.5 mph
(NW 6 kph)
- 10SM
17:35
Overcast
34°F / 1°C 30°F / -1°C 87% 30.04 in
(1017 mb)
NNW 3.5 mph
(NNW 6 kph)
- 10SM
17:15
Overcast
34°F / 1°C 32°F / 0°C 93% 30.04 in
(1017 mb)
N 3.5 mph
(N 6 kph)
- 10SM
16:55
Overcast
34°F / 1°C 30°F / -1°C 87% 30.01 in
(1016 mb)
N 4.6 mph
(N 7 kph)
- 10SM
16:35
Overcast
34°F / 1°C 32°F / 0°C 93% 30.01 in
(1016 mb)
NNW 4.6 mph
(NNW 7 kph)
- 10SM
16:15
Overcast
34°F / 1°C 32°F / 0°C 93% 30.01 in
(1016 mb)
NW 4.6 mph
(NW 7 kph)
- 7SM
15:55
Overcast
Unknown Precip
34°F / 1°C 32°F / 0°C 93% 29.98 in
(1015 mb)
NNW 4.6 mph
(NNW 7 kph)
- 7SM
15:35
Overcast
Light Rain
32°F / 0°C 32°F / 0°C 100% 29.98 in
(1015 mb)
NW 6.9 mph
(NW 11 kph)
- 7SM
15:15
Overcast
Unknown Precip
32°F / 0°C 32°F / 0°C 100% 29.95 in
(1014 mb)
NNW 3.5 mph
(NNW 6 kph)
- 4SM
14:55
Overcast
Light Snow
32°F / 0°C 30°F / -1°C 93% 29.95 in
(1014 mb)
NNW 10.4 mph
(NNW 17 kph)
- 4SM
14:35
Overcast
Light Snow
32°F / 0°C 30°F / -1°C 93% 29.95 in
(1014 mb)
NNW 8.1 mph
(NNW 13 kph)
- 5SM
14:15
Overcast
Light Snow
32°F / 0°C 30°F / -1°C 93% 29.92 in
(1013 mb)
NW 6.9 mph
(NW 11 kph)
- 4SM
13:55
Overcast
Light Snow
32°F / 0°C 32°F / 0°C 100% 29.92 in
(1013 mb)
NW 9.2 mph
(NW 15 kph)
- 4SM
13:35
Overcast
Light Snow
32°F / 0°C 30°F / -1°C 93% 29.89 in
(1012 mb)
NNW 9.2 mph
(NNW 15 kph)
- 5SM
13:15
Overcast
Light Snow
32°F / 0°C 30°F / -1°C 93% 29.89 in
(1012 mb)
NW 10.4 mph
(NW 17 kph)
- 4SM
12:55
Overcast
Light Snow
32°F / 0°C 30°F / -1°C 93% 29.89 in
(1012 mb)
NW 10.4 mph
(NW 17 kph)
- 3SM
12:35
Overcast
Light Snow
32°F / 0°C 30°F / -1°C 93% 29.89 in
(1012 mb)
NW 10.4 mph
(NW 17 kph)
- 3SM
12:15
Overcast
Light Snow
32°F / 0°C 30°F / -1°C 93% 29.89 in
(1012 mb)
NW 10.4 mph
(NW 17 kph)
- 2 1/2SM
11:55
Overcast
Light Snow
32°F / 0°C 30°F / -1°C 93% 29.86 in
(1011 mb)
NNW 8.1 mph
(NNW 13 kph)
- 4SM
11:35
Overcast
Light Snow
32°F / 0°C 30°F / -1°C 93% 29.86 in
(1011 mb)
N 13.8 mph
(N 22 kph)
- 3SM
11:15
Overcast
Light Snow
32°F / 0°C 30°F / -1°C 93% 29.86 in
(1011 mb)
NNW 6.9 mph
(NNW 11 kph)
- 4SM
10:55
Fair
32°F / 0°C 30°F / -1°C 93% 29.86 in
(1011 mb)
NNW 8.1 mph
(NNW 13 kph)
-
10:35
Overcast
32°F / 0°C 30°F / -1°C 93% 29.83 in
(1010 mb)
NNW 12.7 mph
(NNW 20 kph)
- 7SM
10:15
Overcast
32°F / 0°C 30°F / -1°C 93% 29.83 in
(1010 mb)
NNW 10.4 mph
(NNW 17 kph)
- 7SM
09:55
Overcast
Light Snow
32°F / 0°C 28°F / -2°C 87% 29.83 in
(1010 mb)
NNW 12.7 mph
(NNW 20 kph)
- 5SM
09:35
Overcast
Light Snow
32°F / 0°C 30°F / -1°C 93% 29.8 in
(1009 mb)
NNW 15 mph
(NNW 24 kph)
- 3SM
09:15
Overcast
Light Snow
32°F / 0°C 30°F / -1°C 93% 29.8 in
(1009 mb)
NNW 10.4 mph
(NNW 17 kph)
- 2 1/2SM
08:55
Overcast
Light Snow
32°F / 0°C 30°F / -1°C 93% 29.8 in
(1009 mb)
N 10.4 mph
(N 17 kph)
- 4SM
08:35
Overcast
Light Snow
32°F / 0°C 30°F / -1°C 93% 29.8 in
(1009 mb)
NNW 10.4 mph
(NNW 17 kph)
- 2 1/2SM
08:15
Overcast
Snow
32°F / 0°C 30°F / -1°C 93% 29.8 in
(1009 mb)
N 11.5 mph
(N 19 kph)
- 1 1/2SM
07:55
Overcast
Light Snow
30°F / -1°C 30°F / -1°C 100% 29.8 in
(1009 mb)
N 12.7 mph
(N 20 kph)
- 1 3/4SM
07:35
Overcast
Light Snow
30°F / -1°C 30°F / -1°C 100% 29.8 in
(1009 mb)
NNW 13.8 mph
(NNW 22 kph)
- 1 3/4SM
07:15
Overcast
Light Snow
30°F / -1°C 30°F / -1°C 100% 29.77 in
(1008 mb)
NNW 12.7 mph
(NNW 20 kph)
- 1 3/4SM
06:55
Overcast
Light Snow
30°F / -1°C 30°F / -1°C 100% 29.77 in
(1008 mb)
NNW 12.7 mph
(NNW 20 kph)
- 1 3/4SM
06:35
Overcast
Light Snow
30°F / -1°C 30°F / -1°C 100% 29.77 in
(1008 mb)
NNW 12.7 mph
(NNW 20 kph)
- 1 1/2SM
06:15
Overcast
Light Snow
30°F / -1°C 30°F / -1°C 100% 29.77 in
(1008 mb)
NNW 12.7 mph
(NNW 20 kph)
- 1 1/2SM
05:55
Overcast
Light Snow
30°F / -1°C 30°F / -1°C 100% 29.77 in
(1008 mb)
NNW 11.5 mph
(NNW 19 kph)
0.01 in
(0.25 mm)
1 3/4SM
05:35
Overcast
Light Snow
30°F / -1°C 30°F / -1°C 100% 29.77 in
(1008 mb)
NNW 10.4 mph
(NNW 17 kph)
0.01 in
(0.25 mm)
1 1/4SM
05:15
Overcast
Light Snow
30°F / -1°C 30°F / -1°C 100% 29.77 in
(1008 mb)
NNW 11.5 mph
(NNW 19 kph)
0.01 in
(0.25 mm)
1 1/4SM
04:55
Overcast
Light Snow
30°F / -1°C 30°F / -1°C 100% 29.77 in
(1008 mb)
NNW 9.2 mph
(NNW 15 kph)
0.01 in
(0.25 mm)
1 3/4SM
04:35
Overcast
Light Snow
30°F / -1°C 30°F / -1°C 100% 29.77 in
(1008 mb)
NNW 10.4 mph
(NNW 17 kph)
0.01 in
(0.25 mm)
1 3/4SM
04:15
Overcast
Heavy Rain
30°F / -1°C 30°F / -1°C 100% 29.77 in
(1008 mb)
NNW 5.8 mph
(NNW 9 kph)
- 3SM
03:55
Overcast
Light Snow
30°F / -1°C 30°F / -1°C 100% 29.77 in
(1008 mb)
NNW 6.9 mph
(NNW 11 kph)
0.06 in
(1.52 mm)
1 3/4SM
01:35
Overcast
Snow
30°F / -1°C 30°F / -1°C 100% 29.89 in
(1012 mb)
Calm 0.05 in
(1.27 mm)
3/4SM
01:15
Overcast
Snow
30°F / -1°C 30°F / -1°C 100% 29.89 in
(1012 mb)
Calm 0.01 in
(0.25 mm)
1SM
00:55
Overcast
Light Snow
30°F / -1°C 30°F / -1°C 100% 29.92 in
(1013 mb)
E 5.8 mph
(E 9 kph)
0.08 in
(2.03 mm)
1 1/4SM
00:35
Overcast
Snow
30°F / -1°C 30°F / -1°C 100% 29.95 in
(1014 mb)
E 3.5 mph
(E 6 kph)
0.06 in
(1.52 mm)
3/4SM
00:15
Overcast
Snow
30°F / -1°C 30°F / -1°C 100% 29.95 in
(1014 mb)
Calm 0.02 in
(0.51 mm)
3/4SM
Time Weather Temperature Dewpoint Humidity Pressure Winds Precip Visibility


Weather for websites

WeatherForYou.com, LLC is not responsible for any damages or problems caused by this service. Current weather conditions are obtained from the closest station including government and personal stations which may have varying degrees of accuracy. Weather forecasts are derived from the NOAA NDFD. Like all things, this site belongs to Jesus Christ... He just trusts me to maintain it. If you have any questions or comments email webmaster@weatherforyou.com

Copyright © 2015, WeatherForYou.com LLC. All rights reserved.